Погода в Акабе

Иордания     29°32′18″N   35°00′15″E
темп.,
°C
ветер,
м/с
пор.,
м/с
влажн.,
%
обл.,
%
осадки,
мм/ч
давл.,
гПа
погр.,
м
11 мая, вт
вт1100:00+26с44340 0.0 100846
03:00+25с44370 0.0 100846
06:00+23с45430 0.0 100959
09:00+25с45390 0.0 1009492
12:00+29ссз33310 0.0 1008735
15:00+33ссз23250 0.0 10061209
18:00+33сз55230 0.0 10051629
21:00+27с68340 0.0 1008434
12 мая, ср
ср1200:00+25с46390 0.0 1009251
03:00+24с45400 0.0 1008103
06:00+22с34410 0.0 100954
09:00+25ссз34330 0.0 1009518
12:00+29ссз33270 0.0 1008773
15:00+32ссз23240 0.0 10061422
18:00+32ссз76200 0.0 10061593
21:00+28с810310 0.0 1008420
13 мая, чт
чт1300:00+25с58410 0.0 1009258
03:00+23с45460 0.0 1010135
06:00+22с45460 0.0 101185
09:00+25ссз45350 0.0 1011545
12:00+29ссз34270 0.0 1010783
15:00+33ссз44220 0.0 10081329
18:00+33ссз88150 0.0 10081381
21:00+28с69270 0.0 1011286
14 мая, пт
пт1400:00+24с46330 0.0 1012130
03:00+22с45360 0.0 101279
06:00+21с45370 0.0 101394
09:00+25с67280 0.0 1013483
12:00+30ссз67170 0.0 1012697
15:00+33с88110 0.0 1010824
18:00+32ссв911110 0.0 1009874
21:00+27с811240 0.0 1012312
15 мая, сб
сб1500:00+24с57320 0.0 1013156
03:00+22с45370 0.0 101384
06:00+21с45380 0.0 101376
09:00+25с56260 0.0 1013499
12:00+30ссз77170 0.0 1011677
15:00+34с88130 0.0 1009836
18:00
21:00+27с811250 0.0 1010253